STARLINK-11457, 62919

Orbit data source: Space-Track

STARLINK-11457, 62919 is a payload satellite owned by SpaceX/Seattle (US) in LEO that was launched on Sat, 08 Feb 2025 UTC via an FALCON 9 launch vehicle from the Air Force Eastern Test Range (AFETR). Payload-class satellites include a variety of spacecraft equipped with specific instruments for various scientific and technological missions. These include communications satellites like Starlink; space stations such as the ISS; scientific satellites like the Hubble; Earth observation satellites from companies like Planet Labs, Umbra, and HawkEye 360; GPS; miniature CubeSats for education and research; and military/defense satellites.

Loading next visibility...
Identifier
62919, 2025-027N
Orbit
LEO
Last TLE update
10 hours ago
Origin
Manufacturer
SpaceX/Seattle
Mission
Operational Commercial Communications
Bus & Motor
STARLINK V2M, Unknown motor
Mass
730 kg wet, ~700 kg dry
Launch date (UTC)
2025-02-08 (5 months ago)
Launch vehicle
FALCON 9
Launch site
Air Force Eastern Test Range (AFETR)
Object type
Payload
Rocket body
Debris
Shape & HBR
Box + 2 Pan, 29 m
Radar Cross Section
36.964 m², Large (>1 m²)

Expand to show TLE details & history

TLE from 10 hours ago
0 STARLINK-11457
1 62919U 25027N   25181.69533018  .00250538  00000-0  18931-2 0  9992
2 62919  42.9999  66.2707 0001685 268.1604  91.9071 15.70898203 23506
Epoch: 2025-06-30T16:41Z
TLE epoch observation values (Epoch: 2025-06-30T16:41:16.527Z)
Latitude
Longitude
-103.04961°
Altitude
356.138 km
Speed
7.697 km/s
True Right ascension
04h 25m 04s
True Declination
0° 00' 00"
Sunlit
Object was in daylight at epoch
Visualization orbit readout
Latitude
-42.71931°
Longitude
174.39771°
Altitude
367.747 km
Speed
7.69 km/s
Apparent Right ascension
00h 45m 48s
Apparent Declination
-44° 42' 30"
Sunlit
Object is in full shadow
Visualization observer readout
Local Sidereal Time
14:38:19
Azimuth
112.298° ESE
Elevation
-68.767°
Doppler factor
1
Orbital elements
Apogee altitude
359.445 km
Perigee altitude
357.175 km
Semi-major axis
6,736.447 km
Eccentricity
0.00017
Inclination
42.9999°
RAAN
66.2707°
Arg. of periapsis
268.1604°
True anomaly
Unknown
Mean anomaly
91.9071°
Eccentric anomaly
Unknown
Mean motion
3.92552 °/min
Orbital period
91.71 mins
BSTAR
0.0018931
Loading maneuver chart data...
Loading SW <> Apogee altitude chart data...
Loading historical data...
Loading historical data...
Loading historical data...
Loading historical data...
Loading historical data...
Loading historical data...
Loading historical data...

STARLINK-11457 Visibility forecast

Observer location: undefined°, undefined°

Span
Click to sort rows by Start time (UTC) header in descending order
Start Az.
Max El. time (UTC)
Max El. Az.
Max El.
End time (UTC)
End Az.
4 mins2025-07-01 20:25:05.859Z247.547° W2025-07-01 20:26:05.859Z241.433° WSW40.962°2025-07-01 20:29:05.859Z72.653° E
4 mins2025-07-01 22:01:05.859Z293.961° NW2025-07-01 22:03:05.859Z20.107° NNE33.251°2025-07-01 22:05:05.859Z68.782° E
|